Location: Unspecified
(0.0000°N, 0.0000°E)
Time: 07:29:35
(UTC+00:00)

Courier 1B - Pass Details

Date: 25 September 2023
Orbit: 962 x 1208 km, 28.3° (Epoch: 08 September)

Event Time Altitude Azimuth Distance (km) Brightness Sun altitude
Rises 07:46:20 0° 220° (SW) 3,765 10.2 28.6°
Reaches altitude 10° 07:49:27 10° 207° (SSW) 2,852 9.8 29.4°
Maximum altitude 07:55:12 27° 152° (SSE) 1,953 9.7 30.8°
Drops below altitude 10° 08:01:14 10° 97° (E) 3,003 11.6 32.3°
Sets 08:04:35 0° 85° (E) 4,002 11.8 33.2°
